KCMH Airport Diagram

We have created a template for each of the higher traffic airports in the vZID airspace. They include KCMH, KCRW, KCVG, KDAY, KIND, KLEX and KSDF. You wil find usefull information including the airport diagram, weather, and specific airport procedures.

KCMH Weather

[Source: ADDS]
METAR
KCMH 181451Z 00000KT 9SM BKN200 00/M03 A3026 RMK AO2 SLP256 I3000 T00001028 51013 =
KCMH 181128Z 1812/1912 00000KT P6SM SKC FM181300 04004KT P6SM FEW250 FM190200 15004KT P6SM FEW250
TAF
KCMH 181128Z 1812/1912 00000KT P6SM SKC FM181300 04004KT P6SM FEW250 FM190200 15004KT P6SM FEW250 =

KCMH Operations

Calm wind runway(s) up to 10 kts: Arriving/Departing 28L/R

Typically, Rw 10R/28L for departures to the West and South and Rw 10L/28R for departures to the North and East.

FBOs: Lane Aviation midfield near Tower, Signature South of Twy B.

Advise ATC if you have updated scenery for KCMH as there are significant changes to the runway/taxiways on the South side of the airport. Default scenery does not match the Airport Diagram available through the usual sources.

JSN Epic template designed by JoomlaShine.com